Time,TemperatureF,DewpointF,PressureIn,WindDirection,WindDirectionDegrees,WindSpeedMPH,WindSpeedGustMPH,Humidity,HourlyPrecipIn,Conditions,Clouds,dailyrainin,SoftwareType,DateUTC
2013-03-26 00:00:00,34.0,30.8,29.71,NNW,338,0.4,0.7,88,0.00,,,0.00,WUHU216HW,2013-03-26 04:00:00,
2013-03-26 00:05:00,34.2,31.0,29.71,NNW,338,0.2,0.7,88,0.00,,,0.00,WUHU216HW,2013-03-26 04:05:00,
2013-03-26 00:10:00,34.2,31.0,29.71,NNW,338,0.7,0.7,88,0.00,,,0.00,WUHU216HW,2013-03-26 04:10:00,
2013-03-26 00:15:00,34.2,31.0,29.72,NNW,338,0.0,0.7,88,0.00,,,0.00,WUHU216HW,2013-03-26 04:15:00,
2013-03-26 00:20:00,34.2,31.2,29.72,NNW,338,0.4,0.9,89,0.00,,,0.00,WUHU216HW,2013-03-26 04:20:00,
2013-03-26 00:25:00,34.4,31.4,29.72,NNW,338,1.1,1.1,89,0.00,,,0.00,WUHU216HW,2013-03-26 04:25:00,
2013-03-26 00:30:00,34.4,31.4,29.72,NNW,338,0.4,1.1,89,0.00,,,0.00,WUHU216HW,2013-03-26 04:30:00,
2013-03-26 00:35:00,34.4,31.4,29.73,NW,315,0.7,1.1,89,0.00,,,0.00,WUHU216HW,2013-03-26 04:35:00,
2013-03-26 00:40:00,34.6,31.6,29.73,WNW,293,1.1,1.1,89,0.00,,,0.00,WUHU216HW,2013-03-26 04:40:00,
2013-03-26 00:45:00,34.4,31.4,29.73,WNW,293,0.7,1.1,89,0.00,,,0.00,WUHU216HW,2013-03-26 04:45:00,
2013-03-26 00:50:00,34.6,31.6,29.73,NW,315,0.4,1.1,89,0.00,,,0.00,WUHU216HW,2013-03-26 04:50:00,
2013-03-26 00:55:00,34.6,31.6,29.74,WNW,293,0.7,1.1,89,0.00,,,0.00,WUHU216HW,2013-03-26 04:55:00,
2013-03-26 01:00:00,34.6,31.6,29.74,NNW,338,1.1,1.3,89,0.00,,,0.00,WUHU216HW,2013-03-26 05:00:00,
2013-03-26 01:05:00,34.6,31.6,29.74,NW,315,1.1,1.3,89,0.00,,,0.00,WUHU216HW,2013-03-26 05:05:00,
2013-03-26 01:10:00,34.6,31.6,29.74,West,270,1.8,1.8,89,0.00,,,0.00,WUHU216HW,2013-03-26 05:10:00,
2013-03-26 01:15:00,34.6,31.6,29.74,WSW,248,1.1,2.5,89,0.00,,,0.00,WUHU216HW,2013-03-26 05:15:00,
2013-03-26 01:20:00,34.6,31.6,29.74,West,270,0.4,2.5,89,0.00,,,0.00,WUHU216HW,2013-03-26 05:20:00,
2013-03-26 01:25:00,34.6,31.6,29.74,NW,315,1.3,1.3,89,0.00,,,0.00,WUHU216HW,2013-03-26 05:25:00,
2013-03-26 01:30:00,34.6,31.6,29.74,West,270,0.9,1.6,89,0.00,,,0.00,WUHU216HW,2013-03-26 05:30:00,
2013-03-26 01:35:00,34.7,31.8,29.74,North,0,2.2,2.2,89,0.00,,,0.00,WUHU216HW,2013-03-26 05:35:00,
2013-03-26 01:40:00,34.9,32.0,29.74,WNW,293,1.1,2.2,89,0.00,,,0.00,WUHU216HW,2013-03-26 05:40:00,
2013-03-26 01:45:00,34.9,32.0,29.74,NW,315,1.8,2.5,89,0.00,,,0.00,WUHU216HW,2013-03-26 05:45:00,
2013-03-26 01:50:00,34.9,32.0,29.74,NW,315,2.7,2.7,89,0.00,,,0.00,WUHU216HW,2013-03-26 05:50:00,
2013-03-26 01:55:00,34.9,32.0,29.74,NW,315,0.4,2.7,89,0.00,,,0.00,WUHU216HW,2013-03-26 05:55:00,
2013-03-26 02:00:00,34.7,31.8,29.74,NNW,338,0.7,1.8,89,0.00,,,0.00,WUHU216HW,2013-03-26 06:00:00,
2013-03-26 02:05:00,34.7,31.8,29.74,WSW,248,0.4,1.8,89,0.00,,,0.00,WUHU216HW,2013-03-26 06:05:00,
2013-03-26 02:10:00,34.7,31.8,29.74,SSW,203,0.2,1.8,89,0.00,,,0.00,WUHU216HW,2013-03-26 06:10:00,
2013-03-26 02:15:00,34.7,31.8,29.75,WNW,293,0.7,1.8,89,0.00,,,0.00,WUHU216HW,2013-03-26 06:15:00,
2013-03-26 02:20:00,34.7,31.8,29.75,WNW,293,0.7,1.8,89,0.00,,,0.00,WUHU216HW,2013-03-26 06:20:00,
2013-03-26 02:25:00,34.6,31.6,29.75,WNW,293,0.4,1.6,89,0.00,,,0.00,WUHU216HW,2013-03-26 06:25:00,
2013-03-26 02:30:00,34.6,31.6,29.75,NW,315,1.3,1.6,89,0.00,,,0.00,WUHU216HW,2013-03-26 06:30:00,
2013-03-26 02:35:00,34.6,31.6,29.76,NW,315,0.0,1.3,89,0.00,,,0.00,WUHU216HW,2013-03-26 06:35:00,
2013-03-26 02:40:00,34.6,31.6,29.76,WNW,293,0.4,1.3,89,0.00,,,0.00,WUHU216HW,2013-03-26 06:40:00,
2013-03-26 02:45:00,34.4,31.4,29.76,NW,315,1.1,1.1,89,0.00,,,0.00,WUHU216HW,2013-03-26 06:45:00,
2013-03-26 02:50:00,34.6,31.6,29.76,NW,315,1.1,1.3,89,0.00,,,0.00,WUHU216HW,2013-03-26 06:50:00,
2013-03-26 02:55:00,34.6,31.6,29.76,WNW,293,0.9,2.2,89,0.00,,,0.00,WUHU216HW,2013-03-26 06:55:00,
2013-03-26 03:00:00,34.6,31.6,29.76,NW,315,1.3,2.2,89,0.00,,,0.00,WUHU216HW,2013-03-26 07:00:00,
2013-03-26 03:05:00,34.7,31.8,29.76,NW,315,0.7,2.0,89,0.00,,,0.00,WUHU216HW,2013-03-26 07:05:00,
2013-03-26 03:10:00,34.6,31.6,29.76,NW,315,0.4,1.8,89,0.00,,,0.00,WUHU216HW,2013-03-26 07:10:00,
2013-03-26 03:15:00,34.6,31.6,29.76,WNW,293,1.8,2.0,89,0.00,,,0.00,WUHU216HW,2013-03-26 07:15:00,
2013-03-26 03:20:00,34.6,31.6,29.76,WNW,293,0.9,3.4,89,0.00,,,0.00,WUHU216HW,2013-03-26 07:20:00,
2013-03-26 03:25:00,34.6,31.6,29.76,NW,315,2.0,3.4,89,0.00,,,0.00,WUHU216HW,2013-03-26 07:25:00,
2013-03-26 03:30:00,34.6,31.6,29.76,NNW,338,1.8,2.0,89,0.00,,,0.00,WUHU216HW,2013-03-26 07:30:00,
2013-03-26 03:35:00,34.6,31.6,29.77,West,270,1.1,1.8,89,0.00,,,0.00,WUHU216HW,2013-03-26 07:35:00,
2013-03-26 03:40:00,34.4,31.4,29.77,WSW,248,1.8,2.2,89,0.00,,,0.00,WUHU216HW,2013-03-26 07:40:00,
2013-03-26 03:45:00,34.6,31.6,29.77,NW,315,1.1,2.2,89,0.00,,,0.00,WUHU216HW,2013-03-26 07:45:00,
2013-03-26 03:50:00,34.4,31.4,29.78,NW,315,1.3,1.8,89,0.00,,,0.00,WUHU216HW,2013-03-26 07:50:00,
2013-03-26 03:55:00,34.4,31.4,29.77,NW,315,1.1,2.5,89,0.00,,,0.00,WUHU216HW,2013-03-26 07:55:00,
2013-03-26 04:00:00,34.4,31.4,29.77,NW,315,1.1,2.5,89,0.00,,,0.00,WUHU216HW,2013-03-26 08:00:00,
2013-03-26 04:05:00,34.4,31.4,29.77,NW,315,0.0,1.8,89,0.00,,,0.00,WUHU216HW,2013-03-26 08:05:00,
2013-03-26 04:10:00,34.4,31.4,29.78,NW,315,0.9,1.8,89,0.00,,,0.00,WUHU216HW,2013-03-26 08:10:00,
2013-03-26 04:15:00,34.4,31.4,29.77,NW,315,0.4,1.1,89,0.00,,,0.00,WUHU216HW,2013-03-26 08:15:00,
2013-03-26 04:20:00,34.2,31.2,29.78,NW,315,0.4,1.1,89,0.00,,,0.00,WUHU216HW,2013-03-26 08:20:00,
2013-03-26 04:25:00,34.2,31.2,29.78,NW,315,1.1,1.1,89,0.00,,,0.00,WUHU216HW,2013-03-26 08:25:00,
2013-03-26 04:30:00,34.2,31.2,29.78,WNW,293,0.9,1.1,89,0.00,,,0.00,WUHU216HW,2013-03-26 08:30:00,
2013-03-26 04:35:00,34.0,31.1,29.78,NW,315,0.4,1.6,89,0.00,,,0.00,WUHU216HW,2013-03-26 08:35:00,
2013-03-26 04:40:00,34.0,31.1,29.78,WNW,293,0.4,1.6,89,0.00,,,0.00,WUHU216HW,2013-03-26 08:40:00,
2013-03-26 04:45:00,33.8,30.9,29.79,WNW,293,0.4,1.1,89,0.00,,,0.00,WUHU216HW,2013-03-26 08:45:00,
2013-03-26 04:50:00,33.8,30.9,29.79,WNW,293,1.1,1.1,89,0.00,,,0.00,WUHU216HW,2013-03-26 08:50:00,
2013-03-26 04:55:00,33.8,30.9,29.79,WNW,293,0.2,1.1,89,0.00,,,0.00,WUHU216HW,2013-03-26 08:55:00,
2013-03-26 05:00:00,33.8,30.9,29.79,WNW,293,1.1,1.1,89,0.00,,,0.00,WUHU216HW,2013-03-26 09:00:00,
2013-03-26 05:05:00,33.8,30.9,29.79,WNW,293,1.6,1.6,89,0.00,,,0.00,WUHU216HW,2013-03-26 09:05:00,
2013-03-26 05:10:00,33.7,30.7,29.79,WNW,293,0.0,1.6,89,0.00,,,0.00,WUHU216HW,2013-03-26 09:10:00,
2013-03-26 05:15:00,33.7,30.7,29.80,WNW,293,0.0,0.9,89,0.00,,,0.00,WUHU216HW,2013-03-26 09:15:00,
2013-03-26 05:20:00,33.7,30.7,29.80,WNW,293,0.4,0.9,89,0.00,,,0.00,WUHU216HW,2013-03-26 09:20:00,
2013-03-26 05:25:00,33.8,30.9,29.80,WNW,293,1.3,1.3,89,0.00,,,0.00,WUHU216HW,2013-03-26 09:25:00,
2013-03-26 05:30:00,33.8,30.9,29.80,WNW,293,0.4,1.3,89,0.00,,,0.00,WUHU216HW,2013-03-26 09:30:00,
2013-03-26 05:35:00,33.8,30.9,29.80,WNW,293,0.4,1.1,89,0.00,,,0.00,WUHU216HW,2013-03-26 09:35:00,
2013-03-26 05:40:00,33.7,30.7,29.81,WNW,293,0.4,1.1,89,0.00,,,0.00,WUHU216HW,2013-03-26 09:40:00,
2013-03-26 05:45:00,33.5,30.5,29.81,WNW,293,0.4,1.1,89,0.00,,,0.00,WUHU216HW,2013-03-26 09:45:00,
2013-03-26 05:50:00,33.5,30.5,29.81,WNW,293,0.4,1.1,89,0.00,,,0.00,WUHU216HW,2013-03-26 09:50:00,
2013-03-26 05:55:00,33.3,30.3,29.81,WNW,293,0.2,1.1,89,0.00,,,0.00,WUHU216HW,2013-03-26 09:55:00,
2013-03-26 06:00:00,33.3,30.3,29.81,WNW,293,0.4,0.4,89,0.00,,,0.00,WUHU216HW,2013-03-26 10:00:00,
2013-03-26 06:05:00,33.3,30.3,29.81,WNW,293,0.0,0.4,89,0.00,,,0.00,WUHU216HW,2013-03-26 10:05:00,
2013-03-26 06:10:00,33.1,30.3,29.82,WNW,293,0.4,0.4,89,0.00,,,0.00,WUHU216HW,2013-03-26 10:10:00,
2013-03-26 06:15:00,33.1,30.3,29.82,WNW,293,0.7,0.7,89,0.00,,,0.00,WUHU216HW,2013-03-26 10:15:00,
2013-03-26 06:20:00,32.9,30.1,29.82,WNW,293,0.0,0.7,89,0.00,,,0.00,WUHU216HW,2013-03-26 10:20:00,
2013-03-26 06:25:00,32.9,30.1,29.82,WNW,293,0.4,0.4,89,0.00,,,0.00,WUHU216HW,2013-03-26 10:25:00,
2013-03-26 06:30:00,32.8,29.9,29.83,WNW,293,0.0,0.4,89,0.00,,,0.00,WUHU216HW,2013-03-26 10:30:00,
2013-03-26 06:35:00,32.8,29.9,29.83,WNW,293,0.4,0.4,89,0.00,,,0.00,WUHU216HW,2013-03-26 10:35:00,
2013-03-26 06:40:00,32.8,29.9,29.83,WNW,293,0.0,0.4,89,0.00,,,0.00,WUHU216HW,2013-03-26 10:40:00,
2013-03-26 06:45:00,32.8,29.9,29.83,WNW,293,0.0,0.4,89,0.00,,,0.00,WUHU216HW,2013-03-26 10:45:00,
2013-03-26 06:50:00,32.9,30.1,29.83,WNW,293,0.0,0.2,89,0.00,,,0.00,WUHU216HW,2013-03-26 10:50:00,
2013-03-26 06:55:00,32.8,29.9,29.84,WNW,293,0.0,0.0,89,0.00,,,0.00,WUHU216HW,2013-03-26 10:55:00,
2013-03-26 07:00:00,32.6,29.7,29.84,WNW,293,0.0,0.0,89,0.00,,,0.00,WUHU216HW,2013-03-26 11:00:00,
2013-03-26 07:05:00,32.6,29.7,29.84,WNW,293,0.0,0.0,89,0.00,,,0.00,WUHU216HW,2013-03-26 11:05:00,
2013-03-26 07:10:00,32.6,29.7,29.84,WNW,293,0.0,0.0,89,0.00,,,0.00,WUHU216HW,2013-03-26 11:10:00,
2013-03-26 07:15:00,32.4,29.5,29.85,WNW,293,0.0,0.0,89,0.00,,,0.00,WUHU216HW,2013-03-26 11:15:00,
2013-03-26 07:20:00,32.4,29.5,29.85,WNW,293,0.2,0.2,89,0.00,,,0.00,WUHU216HW,2013-03-26 11:20:00,
2013-03-26 07:25:00,32.4,29.5,29.85,WNW,293,0.0,0.2,89,0.00,,,0.00,WUHU216HW,2013-03-26 11:25:00,
2013-03-26 07:30:00,32.6,29.7,29.85,WNW,293,0.0,0.2,89,0.00,,,0.00,WUHU216HW,2013-03-26 11:30:00,
2013-03-26 07:35:00,32.6,29.7,29.85,WNW,293,0.0,0.2,89,0.00,,,0.00,WUHU216HW,2013-03-26 11:35:00,
2013-03-26 07:40:00,32.8,29.9,29.85,WNW,293,0.4,0.4,89,0.00,,,0.00,WUHU216HW,2013-03-26 11:40:00,
2013-03-26 07:45:00,32.8,29.9,29.85,WNW,293,0.2,0.7,89,0.00,,,0.00,WUHU216HW,2013-03-26 11:45:00,
2013-03-26 07:50:00,32.9,30.1,29.85,WNW,293,0.0,0.7,89,0.00,,,0.00,WUHU216HW,2013-03-26 11:50:00,
2013-03-26 07:55:00,33.3,30.3,29.86,WNW,293,0.0,0.4,89,0.00,,,0.00,WUHU216HW,2013-03-26 11:55:00,
2013-03-26 08:00:00,33.8,30.9,29.86,WNW,293,0.2,0.4,89,0.00,,,0.00,WUHU216HW,2013-03-26 12:00:00,
2013-03-26 08:05:00,34.2,31.2,29.86,WNW,293,0.0,1.1,89,0.00,,,0.00,WUHU216HW,2013-03-26 12:05:00,
2013-03-26 08:11:00,34.2,31.2,29.86,WNW,293,1.3,1.3,89,0.00,,,0.00,WUHU216HW,2013-03-26 12:11:00,
2013-03-26 08:16:00,34.6,31.6,29.86,WNW,293,0.2,2.2,89,0.00,,,0.00,WUHU216HW,2013-03-26 12:16:00,
2013-03-26 08:22:00,34.9,32.0,29.87,NW,315,0.9,0.9,89,0.00,,,0.00,WUHU216HW,2013-03-26 12:22:00,
2013-03-26 08:27:00,35.3,32.3,29.87,NW,315,0.4,1.1,89,0.00,,,0.00,WUHU216HW,2013-03-26 12:27:00,
2013-03-26 08:32:00,35.6,32.7,29.87,NW,315,0.4,2.5,89,0.00,,,0.00,WUHU216HW,2013-03-26 12:32:00,
2013-03-26 08:37:00,36.0,33.0,29.87,NW,315,1.1,2.5,89,0.00,,,0.00,WUHU216HW,2013-03-26 12:37:00,
2013-03-26 08:42:00,36.4,33.4,29.87,NW,315,2.2,2.2,89,0.00,,,0.00,WUHU216HW,2013-03-26 12:42:00,
2013-03-26 08:47:00,36.9,33.7,29.87,NW,315,0.9,2.7,88,0.00,,,0.00,WUHU216HW,2013-03-26 12:47:00,
2013-03-26 08:52:00,37.4,34.5,29.87,NW,315,3.8,3.8,89,0.00,,,0.00,WUHU216HW,2013-03-26 12:52:00,
2013-03-26 08:57:00,38.2,34.9,29.87,NNW,338,1.3,3.8,88,0.00,,,0.00,WUHU216HW,2013-03-26 12:57:00,
2013-03-26 09:02:00,38.5,35.3,29.87,West,270,1.1,2.7,88,0.00,,,0.00,WUHU216HW,2013-03-26 13:02:00,
2013-03-26 09:07:00,39.1,35.8,29.87,NNW,338,2.5,2.5,88,0.00,,,0.00,WUHU216HW,2013-03-26 13:07:00,
2013-03-26 09:12:00,39.4,35.8,29.88,NNW,338,1.1,2.5,87,0.00,,,0.00,WUHU216HW,2013-03-26 13:12:00,
2013-03-26 09:17:00,40.0,36.4,29.88,WNW,293,1.1,3.1,87,0.00,,,0.00,WUHU216HW,2013-03-26 13:17:00,
2013-03-26 09:23:00,40.5,36.3,29.88,NNW,338,0.9,3.1,85,0.00,,,0.00,WUHU216HW,2013-03-26 13:23:00,
2013-03-26 09:28:00,41.0,36.6,29.88,West,270,1.1,2.5,84,0.00,,,0.00,WUHU216HW,2013-03-26 13:28:00,
2013-03-26 09:33:00,41.2,36.7,29.88,NW,315,1.3,2.5,84,0.00,,,0.00,WUHU216HW,2013-03-26 13:33:00,
2013-03-26 09:38:00,41.8,37.3,29.88,WSW,248,1.1,1.8,84,0.00,,,0.00,WUHU216HW,2013-03-26 13:38:00,
2013-03-26 09:44:00,42.1,37.3,29.88,West,270,2.9,3.4,83,0.00,,,0.00,WUHU216HW,2013-03-26 13:44:00,
2013-03-26 09:49:00,42.5,37.4,29.88,North,0,2.9,4.0,82,0.00,,,0.00,WUHU216HW,2013-03-26 13:49:00,
2013-03-26 09:54:00,42.8,37.7,29.88,NNW,338,1.1,4.0,82,0.00,,,0.00,WUHU216HW,2013-03-26 13:54:00,
2013-03-26 09:59:00,43.4,38.3,29.88,North,0,0.9,2.2,82,0.00,,,0.00,WUHU216HW,2013-03-26 13:59:00,
2013-03-26 10:04:00,43.7,38.3,29.88,NNW,338,3.6,3.6,81,0.00,,,0.00,WUHU216HW,2013-03-26 14:04:00,
2013-03-26 10:09:00,43.9,37.2,29.88,WNW,293,1.8,3.6,77,0.00,,,0.00,WUHU216HW,2013-03-26 14:09:00,
2013-03-26 10:14:00,44.1,37.4,29.88,NW,315,3.4,4.7,77,0.00,,,0.00,WUHU216HW,2013-03-26 14:14:00,
2013-03-26 10:19:00,44.3,36.8,29.88,NW,315,3.8,4.7,75,0.00,,,0.00,WUHU216HW,2013-03-26 14:19:00,
2013-03-26 10:24:00,44.8,37.0,29.88,West,270,3.4,3.8,74,0.00,,,0.00,WUHU216HW,2013-03-26 14:24:00,
2013-03-26 10:29:00,45.0,37.5,29.88,West,270,1.8,3.4,75,0.00,,,0.00,WUHU216HW,2013-03-26 14:29:00,
2013-03-26 10:34:00,45.2,36.0,29.89,NNW,338,2.5,4.3,70,0.00,,,0.00,WUHU216HW,2013-03-26 14:34:00,
2013-03-26 10:39:00,45.4,36.9,29.89,NNW,338,1.8,4.3,72,0.00,,,0.00,WUHU216HW,2013-03-26 14:39:00,
2013-03-26 10:44:00,45.5,36.7,29.89,West,270,3.4,3.4,71,0.00,,,0.00,WUHU216HW,2013-03-26 14:44:00,
2013-03-26 10:49:00,45.4,36.2,29.89,NW,315,2.5,4.3,70,0.00,,,0.00,WUHU216HW,2013-03-26 14:49:00,
2013-03-26 10:54:00,45.7,36.2,29.89,NW,315,4.0,4.3,69,0.00,,,0.00,WUHU216HW,2013-03-26 14:54:00,
2013-03-26 10:59:00,46.1,36.1,29.89,West,270,2.5,4.0,68,0.00,,,0.00,WUHU216HW,2013-03-26 14:59:00,
2013-03-26 11:04:00,46.4,35.6,29.89,WSW,248,3.4,5.4,66,0.00,,,0.00,WUHU216HW,2013-03-26 15:04:00,
2013-03-26 11:09:00,46.4,34.9,29.89,NW,315,3.4,5.4,64,0.00,,,0.00,WUHU216HW,2013-03-26 15:09:00,
2013-03-26 11:14:00,46.4,34.5,29.89,West,270,6.3,6.3,63,0.00,,,0.00,WUHU216HW,2013-03-26 15:14:00,
2013-03-26 11:19:00,47.0,35.8,29.88,WNW,293,4.7,6.3,65,0.00,,,0.00,WUHU216HW,2013-03-26 15:19:00,
2013-03-26 11:24:00,47.0,35.8,29.88,WNW,293,4.7,4.7,65,0.00,,,0.00,WUHU216HW,2013-03-26 15:24:00,
2013-03-26 11:49:00,48.4,36.0,29.88,NNW,338,1.8,1.8,62,0.00,,,0.00,WUHU216HW,2013-03-26 15:49:00,
2013-03-26 11:54:00,48.4,35.3,29.89,North,0,5.4,5.8,60,0.00,,,0.00,WUHU216HW,2013-03-26 15:54:00,
2013-03-26 11:59:00,48.2,35.1,29.88,WSW,248,2.7,8.1,60,0.00,,,0.00,WUHU216HW,2013-03-26 15:59:00,
2013-03-26 12:04:00,48.8,36.0,29.89,West,270,3.4,8.1,61,0.00,,,0.00,WUHU216HW,2013-03-26 16:04:00,
2013-03-26 12:09:00,48.8,35.1,29.88,NW,315,3.4,5.8,59,0.00,,,0.00,WUHU216HW,2013-03-26 16:09:00,
2013-03-26 12:14:00,48.6,34.9,29.88,WNW,293,2.7,5.4,59,0.00,,,0.00,WUHU216HW,2013-03-26 16:14:00,
2013-03-26 12:19:00,49.0,34.8,29.88,West,270,1.8,5.4,58,0.00,,,0.00,WUHU216HW,2013-03-26 16:19:00,
2013-03-26 12:24:00,49.7,35.5,29.88,NNE,23,3.1,5.4,58,0.00,,,0.00,WUHU216HW,2013-03-26 16:24:00,
2013-03-26 12:29:00,50.0,35.8,29.88,North,0,4.7,5.4,58,0.00,,,0.00,WUHU216HW,2013-03-26 16:29:00,
2013-03-26 12:34:00,50.4,35.3,29.88,WNW,293,5.4,5.4,56,0.00,,,0.00,WUHU216HW,2013-03-26 16:34:00,
2013-03-26 12:39:00,50.6,35.4,29.88,NW,315,4.7,5.4,56,0.00,,,0.00,WUHU216HW,2013-03-26 16:39:00,
2013-03-26 12:44:00,50.8,35.6,29.88,West,270,3.8,4.7,56,0.00,,,0.00,WUHU216HW,2013-03-26 16:44:00,
2013-03-26 12:49:00,50.6,35.8,29.88,North,0,2.5,4.7,57,0.00,,,0.00,WUHU216HW,2013-03-26 16:49:00,
2013-03-26 12:54:00,50.8,36.0,29.88,WNW,293,2.7,3.6,57,0.00,,,0.00,WUHU216HW,2013-03-26 16:54:00,
2013-03-26 12:59:00,50.2,34.2,29.88,NNW,338,2.7,6.0,54,0.00,,,0.00,WUHU216HW,2013-03-26 16:59:00,
2013-03-26 13:04:00,49.5,33.5,29.88,NW,315,3.6,6.0,54,0.00,,,0.00,WUHU216HW,2013-03-26 17:04:00,
2013-03-26 13:09:00,49.5,34.8,29.88,NNW,338,2.5,4.3,57,0.00,,,0.00,WUHU216HW,2013-03-26 17:09:00,
2013-03-26 13:14:00,50.0,34.5,29.88,NW,315,3.6,5.1,55,0.00,,,0.00,WUHU216HW,2013-03-26 17:14:00,
2013-03-26 13:19:00,49.5,32.1,29.88,NNW,338,3.1,6.5,51,0.00,,,0.00,WUHU216HW,2013-03-26 17:19:00,
2013-03-26 13:24:00,49.7,33.2,29.88,NW,315,2.2,6.5,53,0.00,,,0.00,WUHU216HW,2013-03-26 17:24:00,
2013-03-26 13:29:00,50.4,33.9,29.88,West,270,4.5,4.7,53,0.00,,,0.00,WUHU216HW,2013-03-26 17:29:00,
2013-03-26 13:34:00,50.8,34.2,29.88,WSW,248,3.4,4.7,53,0.00,,,0.00,WUHU216HW,2013-03-26 17:34:00,
2013-03-26 13:39:00,50.9,33.9,29.88,NNW,338,3.6,4.7,52,0.00,,,0.00,WUHU216HW,2013-03-26 17:39:00,
2013-03-26 13:44:00,51.1,33.7,29.88,NNW,338,2.0,4.7,51,0.00,,,0.00,WUHU216HW,2013-03-26 17:44:00,
2013-03-26 13:49:00,50.8,33.3,29.88,NNW,338,3.4,4.9,51,0.00,,,0.00,WUHU216HW,2013-03-26 17:49:00,
2013-03-26 13:54:00,50.8,32.3,29.88,NNW,338,3.4,6.3,49,0.00,,,0.00,WUHU216HW,2013-03-26 17:54:00,
2013-03-26 13:59:00,51.1,32.7,29.88,NW,315,2.2,6.3,49,0.00,,,0.00,WUHU216HW,2013-03-26 17:59:00,
2013-03-26 14:04:00,51.1,32.0,29.87,North,0,3.8,4.5,48,0.00,,,0.00,WUHU216HW,2013-03-26 18:04:00,
2013-03-26 14:09:00,50.8,31.2,29.88,NW,315,4.0,4.7,47,0.00,,,0.00,WUHU216HW,2013-03-26 18:09:00,
2013-03-26 14:14:00,50.4,31.4,29.88,North,0,4.0,4.7,48,0.00,,,0.00,WUHU216HW,2013-03-26 18:14:00,
2013-03-26 14:19:00,50.2,32.9,29.88,North,0,2.2,4.0,51,0.00,,,0.00,WUHU216HW,2013-03-26 18:19:00,
2013-03-26 14:24:00,50.2,32.4,29.88,WNW,293,3.1,4.0,50,0.00,,,0.00,WUHU216HW,2013-03-26 18:24:00,
2013-03-26 14:29:00,50.0,32.7,29.88,NW,315,1.1,4.7,51,0.00,,,0.00,WUHU216HW,2013-03-26 18:29:00,
2013-03-26 14:34:00,50.0,33.1,29.88,NW,315,3.6,4.7,52,0.00,,,0.00,WUHU216HW,2013-03-26 18:34:00,
2013-03-26 14:39:00,50.4,33.5,29.88,NW,315,2.9,3.6,52,0.00,,,0.00,WUHU216HW,2013-03-26 18:39:00,
2013-03-26 14:44:00,50.4,33.5,29.87,NNW,338,1.6,3.6,52,0.00,,,0.00,WUHU216HW,2013-03-26 18:44:00,
2013-03-26 14:49:00,50.4,32.0,29.88,NNW,338,2.5,2.5,49,0.00,,,0.00,WUHU216HW,2013-03-26 18:49:00,
2013-03-26 14:54:00,50.0,31.7,29.88,NW,315,2.5,2.5,49,0.00,,,0.00,WUHU216HW,2013-03-26 18:54:00,
2013-03-26 14:59:00,49.7,31.9,29.88,West,270,4.0,4.0,50,0.00,,,0.00,WUHU216HW,2013-03-26 18:59:00,
2013-03-26 15:04:00,49.3,32.0,29.88,NW,315,2.0,4.0,51,0.00,,,0.00,WUHU216HW,2013-03-26 19:04:00,
2013-03-26 15:09:00,49.3,32.0,29.88,NW,315,1.8,2.5,51,0.00,,,0.00,WUHU216HW,2013-03-26 19:09:00,
2013-03-26 15:14:00,49.3,32.0,29.88,NW,315,1.8,1.8,51,0.00,,,0.00,WUHU216HW,2013-03-26 19:14:00,
2013-03-26 15:35:00,49.9,35.2,29.88,ESE,113,0.2,0.2,57,0.00,,,0.00,WUHU216HW,2013-03-26 19:35:00,
2013-03-26 15:40:00,50.0,35.4,29.88,NE,45,1.6,2.7,57,0.00,,,0.00,WUHU216HW,2013-03-26 19:40:00,
2013-03-26 15:45:00,49.9,35.6,29.88,North,0,0.4,2.7,58,0.00,,,0.00,WUHU216HW,2013-03-26 19:45:00,
2013-03-26 15:50:00,49.9,35.6,29.88,NNE,23,0.4,2.0,58,0.00,,,0.00,WUHU216HW,2013-03-26 19:50:00,
2013-03-26 15:55:00,49.7,35.9,29.88,NNW,338,2.9,2.9,59,0.00,,,0.00,WUHU216HW,2013-03-26 19:55:00,
2013-03-26 16:00:00,49.5,35.8,29.88,NE,45,1.8,2.9,59,0.00,,,0.00,WUHU216HW,2013-03-26 20:00:00,
2013-03-26 16:05:00,49.3,33.8,29.88,NW,315,4.0,6.3,55,0.00,,,0.00,WUHU216HW,2013-03-26 20:05:00,
2013-03-26 16:10:00,49.3,32.0,29.88,NW,315,2.5,6.3,51,0.00,,,0.00,WUHU216HW,2013-03-26 20:10:00,
2013-03-26 16:15:00,49.5,32.6,29.88,NW,315,3.8,5.8,52,0.00,,,0.00,WUHU216HW,2013-03-26 20:15:00,
2013-03-26 16:20:00,49.7,32.8,29.89,WNW,293,1.8,3.8,52,0.00,,,0.00,WUHU216HW,2013-03-26 20:20:00,
2013-03-26 16:25:00,49.7,32.8,29.89,West,270,1.1,4.0,52,0.00,,,0.00,WUHU216HW,2013-03-26 20:25:00,
2013-03-26 16:30:00,49.9,33.4,29.89,SW,225,1.6,4.0,53,0.00,,,0.00,WUHU216HW,2013-03-26 20:30:00,
2013-03-26 16:35:00,49.9,32.9,29.89,West,270,1.8,4.9,52,0.00,,,0.00,WUHU216HW,2013-03-26 20:35:00,
2013-03-26 16:40:00,49.7,32.3,29.89,NW,315,2.5,4.9,51,0.00,,,0.00,WUHU216HW,2013-03-26 20:40:00,
2013-03-26 16:45:00,49.5,33.0,29.89,West,270,1.8,4.0,53,0.00,,,0.00,WUHU216HW,2013-03-26 20:45:00,
2013-03-26 16:50:00,49.3,32.4,29.89,NW,315,4.0,4.0,52,0.00,,,0.00,WUHU216HW,2013-03-26 20:50:00,
2013-03-26 16:55:00,49.3,32.4,29.89,WSW,248,2.5,4.0,52,0.00,,,0.00,WUHU216HW,2013-03-26 20:55:00,
2013-03-26 17:00:00,49.1,32.7,29.89,West,270,2.5,3.1,53,0.00,,,0.00,WUHU216HW,2013-03-26 21:00:00,
2013-03-26 17:05:00,49.0,32.5,29.89,West,270,1.8,3.4,53,0.00,,,0.00,WUHU216HW,2013-03-26 21:05:00,
2013-03-26 17:10:00,48.8,32.3,29.89,NW,315,5.4,5.4,53,0.00,,,0.00,WUHU216HW,2013-03-26 21:10:00,
2013-03-26 17:15:00,48.6,32.1,29.90,West,270,2.0,5.4,53,0.00,,,0.00,WUHU216HW,2013-03-26 21:15:00,
2013-03-26 17:20:00,48.6,32.7,29.90,WSW,248,0.7,4.3,54,0.00,,,0.00,WUHU216HW,2013-03-26 21:20:00,
2013-03-26 17:25:00,49.0,32.9,29.90,WNW,293,1.8,2.0,54,0.00,,,0.00,WUHU216HW,2013-03-26 21:25:00,
2013-03-26 17:30:00,49.1,32.7,29.90,West,270,3.8,3.8,53,0.00,,,0.00,WUHU216HW,2013-03-26 21:30:00,
2013-03-26 17:35:00,49.1,31.8,29.90,NNW,338,2.9,4.0,51,0.00,,,0.00,WUHU216HW,2013-03-26 21:35:00,
2013-03-26 17:40:00,49.3,32.9,29.90,WSW,248,2.7,4.0,53,0.00,,,0.00,WUHU216HW,2013-03-26 21:40:00,
2013-03-26 17:46:00,49.0,32.5,29.90,West,270,0.4,2.7,53,0.00,,,0.00,WUHU216HW,2013-03-26 21:46:00,
2013-03-26 17:51:00,49.0,32.9,29.90,West,270,0.9,2.5,54,0.00,,,0.00,WUHU216HW,2013-03-26 21:51:00,
2013-03-26 17:56:00,49.1,33.1,29.91,WNW,293,0.4,1.8,54,0.00,,,0.00,WUHU216HW,2013-03-26 21:56:00,
2013-03-26 18:01:00,49.1,33.7,29.91,SSW,203,0.0,1.8,55,0.00,,,0.00,WUHU216HW,2013-03-26 22:01:00,
2013-03-26 18:06:00,49.3,33.8,29.91,SW,225,1.1,1.1,55,0.00,,,0.00,WUHU216HW,2013-03-26 22:06:00,
2013-03-26 18:12:00,49.1,33.7,29.91,West,270,1.1,1.3,55,0.00,,,0.00,WUHU216HW,2013-03-26 22:12:00,
2013-03-26 18:17:00,49.0,33.5,29.91,WSW,248,0.4,1.3,55,0.00,,,0.00,WUHU216HW,2013-03-26 22:17:00,
2013-03-26 18:22:00,48.8,33.3,29.91,West,270,1.1,1.8,55,0.00,,,0.00,WUHU216HW,2013-03-26 22:22:00,
2013-03-26 18:27:00,48.6,33.1,29.92,WSW,248,1.6,1.8,55,0.00,,,0.00,WUHU216HW,2013-03-26 22:27:00,
2013-03-26 18:32:00,48.4,33.0,29.92,West,270,0.4,1.6,55,0.00,,,0.00,WUHU216HW,2013-03-26 22:32:00,
2013-03-26 18:37:00,48.2,33.2,29.92,WSW,248,1.8,1.8,56,0.00,,,0.00,WUHU216HW,2013-03-26 22:37:00,
2013-03-26 18:42:00,48.1,33.0,29.92,West,270,0.0,1.8,56,0.00,,,0.00,WUHU216HW,2013-03-26 22:42:00,
2013-03-26 18:47:00,48.1,33.0,29.92,West,270,3.1,3.1,56,0.00,,,0.00,WUHU216HW,2013-03-26 22:47:00,
2013-03-26 18:52:00,48.1,32.6,29.92,NW,315,2.7,3.4,55,0.00,,,0.00,WUHU216HW,2013-03-26 22:52:00,
2013-03-26 18:57:00,47.9,32.4,29.92,WSW,248,1.8,3.4,55,0.00,,,0.00,WUHU216HW,2013-03-26 22:57:00,
2013-03-26 19:02:00,47.7,31.8,29.93,WSW,248,0.7,3.1,54,0.00,,,0.00,WUHU216HW,2013-03-26 23:02:00,
2013-03-26 19:07:00,47.5,32.0,29.93,West,270,0.9,3.1,55,0.00,,,0.00,WUHU216HW,2013-03-26 23:07:00,
2013-03-26 19:12:00,47.5,32.0,29.93,West,270,1.1,2.5,55,0.00,,,0.00,WUHU216HW,2013-03-26 23:12:00,
2013-03-26 19:17:00,47.5,32.0,29.93,West,270,1.1,2.5,55,0.00,,,0.00,WUHU216HW,2013-03-26 23:17:00,
2013-03-26 19:22:00,47.3,31.9,29.93,WSW,248,0.7,1.1,55,0.00,,,0.00,WUHU216HW,2013-03-26 23:22:00,
2013-03-26 19:27:00,47.2,31.8,29.94,WSW,248,1.6,1.8,55,0.00,,,0.00,WUHU216HW,2013-03-26 23:27:00,
2013-03-26 19:32:00,47.0,31.6,29.94,WSW,248,1.1,1.8,55,0.00,,,0.00,WUHU216HW,2013-03-26 23:32:00,
2013-03-26 19:37:00,46.6,31.7,29.94,West,270,1.1,1.6,56,0.00,,,0.00,WUHU216HW,2013-03-26 23:37:00,
2013-03-26 19:42:00,46.4,31.5,29.94,West,270,0.4,1.3,56,0.00,,,0.00,WUHU216HW,2013-03-26 23:42:00,
2013-03-26 19:47:00,46.3,31.3,29.94,West,270,0.0,1.3,56,0.00,,,0.00,WUHU216HW,2013-03-26 23:47:00,
2013-03-26 19:52:00,46.1,31.6,29.95,West,270,0.4,1.1,57,0.00,,,0.00,WUHU216HW,2013-03-26 23:52:00,
2013-03-26 19:57:00,45.7,31.3,29.95,WNW,293,0.7,0.9,57,0.00,,,0.00,WUHU216HW,2013-03-26 23:57:00,
2013-03-26 20:02:00,45.5,31.1,29.95,NW,315,0.4,1.1,57,0.00,,,0.00,WUHU216HW,2013-03-27 00:02:00,
2013-03-26 20:07:00,45.4,31.0,29.96,NW,315,0.0,1.1,57,0.00,,,0.00,WUHU216HW,2013-03-27 00:07:00,
2013-03-26 20:12:00,45.2,30.8,29.96,NW,315,0.4,0.7,57,0.00,,,0.00,WUHU216HW,2013-03-27 00:12:00,
2013-03-26 20:17:00,45.0,31.2,29.96,West,270,1.6,1.6,58,0.00,,,0.00,WUHU216HW,2013-03-27 00:17:00,
2013-03-26 20:22:00,45.0,31.2,29.96,WNW,293,2.2,2.2,58,0.00,,,0.00,WUHU216HW,2013-03-27 00:22:00,
2013-03-26 20:27:00,45.0,31.2,29.96,WNW,293,0.9,2.2,58,0.00,,,0.00,WUHU216HW,2013-03-27 00:27:00,
2013-03-26 20:32:00,45.2,31.2,29.96,NW,315,1.1,2.5,58,0.00,,,0.00,WUHU216HW,2013-03-27 00:32:00,
2013-03-26 20:37:00,45.2,31.2,29.96,WNW,293,0.9,2.5,58,0.00,,,0.00,WUHU216HW,2013-03-27 00:37:00,
2013-03-26 20:42:00,45.2,31.2,29.97,NNW,338,0.9,1.3,58,0.00,,,0.00,WUHU216HW,2013-03-27 00:42:00,
2013-03-26 20:47:00,45.0,31.2,29.97,NW,315,0.7,1.1,58,0.00,,,0.00,WUHU216HW,2013-03-27 00:47:00,
2013-03-26 20:52:00,45.0,31.2,29.97,NW,315,0.0,0.7,58,0.00,,,0.00,WUHU216HW,2013-03-27 00:52:00,
2013-03-26 20:58:00,44.8,31.4,29.97,NW,315,0.4,0.7,59,0.00,,,0.00,WUHU216HW,2013-03-27 00:58:00,
2013-03-26 21:03:00,44.6,31.2,29.97,NW,315,0.0,0.7,59,0.00,,,0.00,WUHU216HW,2013-03-27 01:03:00,
2013-03-26 21:08:00,44.5,31.1,29.98,WNW,293,0.9,0.9,59,0.00,,,0.00,WUHU216HW,2013-03-27 01:08:00,
2013-03-26 21:13:00,44.5,31.1,29.98,NW,315,0.7,1.3,59,0.00,,,0.00,WUHU216HW,2013-03-27 01:13:00,
2013-03-26 21:18:00,44.5,31.1,29.98,NW,315,1.3,1.3,59,0.00,,,0.00,WUHU216HW,2013-03-27 01:18:00,
2013-03-26 21:23:00,44.5,31.1,29.98,NW,315,0.4,1.3,59,0.00,,,0.00,WUHU216HW,2013-03-27 01:23:00,
2013-03-26 21:29:00,44.5,31.1,29.98,NW,315,0.0,1.3,59,0.00,,,0.00,WUHU216HW,2013-03-27 01:29:00,
2013-03-26 21:34:00,44.5,31.1,29.98,NW,315,0.0,0.4,59,0.00,,,0.00,WUHU216HW,2013-03-27 01:34:00,
2013-03-26 21:39:00,44.5,31.5,29.98,NW,315,0.0,0.4,60,0.00,,,0.00,WUHU216HW,2013-03-27 01:39:00,
2013-03-26 21:44:00,44.5,31.5,29.98,NW,315,0.0,0.0,60,0.00,,,0.00,WUHU216HW,2013-03-27 01:44:00,
2013-03-26 21:49:00,44.6,31.7,29.98,WNW,293,1.1,1.1,60,0.00,,,0.00,WUHU216HW,2013-03-27 01:49:00,
2013-03-26 21:54:00,44.5,31.5,29.99,WNW,293,1.1,1.1,60,0.00,,,0.00,WUHU216HW,2013-03-27 01:54:00,
2013-03-26 21:59:00,44.5,31.5,29.99,WNW,293,0.2,1.1,60,0.00,,,0.00,WUHU216HW,2013-03-27 01:59:00,
2013-03-26 22:04:00,44.3,31.3,29.99,NW,315,0.7,1.1,60,0.00,,,0.00,WUHU216HW,2013-03-27 02:04:00,
2013-03-26 22:09:00,43.9,31.0,29.99,NW,315,0.9,1.1,60,0.00,,,0.00,WUHU216HW,2013-03-27 02:09:00,
2013-03-26 22:14:00,43.7,30.8,29.99,NW,315,0.4,0.9,60,0.00,,,0.00,WUHU216HW,2013-03-27 02:14:00,
2013-03-26 22:19:00,43.6,30.6,29.99,WNW,293,0.4,0.9,60,0.00,,,0.00,WUHU216HW,2013-03-27 02:19:00,
2013-03-26 22:24:00,43.4,30.8,29.99,WNW,293,0.2,0.9,61,0.00,,,0.00,WUHU216HW,2013-03-27 02:24:00,
2013-03-26 22:29:00,43.2,30.6,29.99,WNW,293,0.7,0.9,61,0.00,,,0.00,WUHU216HW,2013-03-27 02:29:00,
2013-03-26 22:34:00,43.2,30.6,29.99,NW,315,0.9,1.6,61,0.00,,,0.00,WUHU216HW,2013-03-27 02:34:00,
2013-03-26 22:39:00,43.0,30.9,30.00,West,270,0.9,1.6,62,0.00,,,0.00,WUHU216HW,2013-03-27 02:39:00,
2013-03-26 22:44:00,43.0,30.9,30.00,NW,315,0.9,1.3,62,0.00,,,0.00,WUHU216HW,2013-03-27 02:44:00,
2013-03-26 22:49:00,42.8,30.7,30.00,NW,315,1.6,1.6,62,0.00,,,0.00,WUHU216HW,2013-03-27 02:49:00,
2013-03-26 22:54:00,42.8,30.7,29.99,NW,315,1.1,1.6,62,0.00,,,0.00,WUHU216HW,2013-03-27 02:54:00,
2013-03-26 22:59:00,42.8,31.1,30.00,West,270,0.9,1.3,63,0.00,,,0.00,WUHU216HW,2013-03-27 02:59:00,
2013-03-26 23:04:00,42.8,31.1,30.00,WNW,293,0.7,1.3,63,0.00,,,0.00,WUHU216HW,2013-03-27 03:04:00,
2013-03-26 23:09:00,42.8,31.1,30.00,WNW,293,1.8,3.1,63,0.00,,,0.00,WUHU216HW,2013-03-27 03:09:00,
2013-03-26 23:14:00,42.7,30.9,30.00,NNW,338,1.6,3.1,63,0.00,,,0.00,WUHU216HW,2013-03-27 03:14:00,
2013-03-26 23:19:00,42.5,30.7,30.00,West,270,0.9,1.8,63,0.00,,,0.00,WUHU216HW,2013-03-27 03:19:00,
2013-03-26 23:24:00,42.3,30.6,30.00,NW,315,1.1,1.8,63,0.00,,,0.00,WUHU216HW,2013-03-27 03:24:00,
2013-03-26 23:29:00,42.1,30.4,30.00,WNW,293,0.7,1.8,63,0.00,,,0.00,WUHU216HW,2013-03-27 03:29:00,
2013-03-26 23:34:00,41.9,30.3,30.00,West,270,1.1,1.3,63,0.00,,,0.00,WUHU216HW,2013-03-27 03:34:00,
2013-03-26 23:39:00,41.8,30.1,30.00,NW,315,2.2,2.2,63,0.00,,,0.00,WUHU216HW,2013-03-27 03:39:00,
2013-03-26 23:44:00,41.6,29.9,30.00,WNW,293,0.7,2.2,63,0.00,,,0.00,WUHU216HW,2013-03-27 03:44:00,
2013-03-26 23:49:00,41.4,30.2,30.00,NW,315,0.7,1.8,64,0.00,,,0.00,WUHU216HW,2013-03-27 03:49:00,
2013-03-26 23:54:00,41.2,30.0,30.00,NW,315,0.4,1.8,64,0.00,,,0.00,WUHU216HW,2013-03-27 03:54:00,
2013-03-26 23:59:00,41.0,29.8,30.00,NW,315,0.4,0.9,64,0.00,,,0.00,WUHU216HW,2013-03-27 03:59:00,